CAPE
0 0 0 0 0 0 0 0 0 0 1 22 0 27 60 24 6 3 0 0 0 0 0 12 6 57 160 271 719 1182 1597 2925 2695 2053 1462 954 570 687 528 639 739 931 1012 1322
0 0 0 0 0 0 0 0 0 0 0 47 24 41 35 17 8 0 0 0 0 0 0 0 0 417 292 548 749 842 1310 2277 2443 1750 1472 824 825 449 597 612 827 990 924 968
0 0 0 0 0 0 0 0 0 0 0 15 17 6 0 0 0 0 0 0 0 0 0 0 0 507 414 575 752 877 1187 1936 2018 1727 1235 778 725 649 681 408 702 1086 822 1052
0 0 0 0 0 0 0 0 0 0 0 0 3 0 0 0 0 0 0 0 0 0 0 0 2 559 581 646 779 968 1317 1323 994 1522 1279 1837 817 463 327 642 480 777 579 580
0 0 0 0 0 0 0 0 0 0 0 0 0 0 0 0 0 0 0 0 0 0 0 0 163 536 568 656 825 1048 1123 905 972 862 1387 676 669 283 424 258 629 899 756 500
0 0 0 0 0 0 0 0 1 12 0 0 0 0 0 0 0 0 0 0 0 0 1 65 510 552 591 605 789 922 853 807 767 551 644 848 624 411 307 531 867 1004 975 865
0 0 1 0 0 0 0 7 2 1 0 0 0 0 0 0 0 0 0 0 0 82 303 446 490 512 529 620 699 742 686 761 587 530 606 629 723 782 803 668 1029 719 591 911
0 0 0 0 0 0 0 0 0 0 0 0 0 0 0 0 0 0 0 0 158 361 420 446 455 503 534 584 579 480 601 549 461 500 508 586 708 621 438 734 587 1131 646 826
15 0 0 0 0 0 0 1 0 1 7 9 9 1 0 0 0 0 0 0 230 491 548 540 539 524 517 482 467 488 504 434 417 385 553 545 709 419 962 708 425 497 598 551
97 25 1 3 0 0 1 0 0 0 2 8 13 15 0 1 1 0 14 5 131 538 573 559 531 498 464 420 394 490 453 404 290 375 464 577 576 559 555 520 397 743 533 183
5 108 57 26 26 0 0 7 0 0 0 14 26 2 0 1 24 9 11 77 473 615 522 487 443 441 437 390 458 535 368 233 233 414 343 1017 793 524 378 378 213 683 257 474
128 56 143 61 44 1 0 3 0 1 0 1 40 25 0 0 11 118 188 403 580 508 443 416 419 422 404 452 478 428 213 138 214 260 377 797 495 554 560 394 136 307 467 191
90 121 35 170 89 13 17 1 8 1 17 20 16 0 0 6 44 85 193 460 506 456 370 372 385 385 428 486 464 153 77 45 154 250 291 520 349 612 631 361 572 40 77 45
46 58 6 143 83 19 27 20 18 6 17 28 0 11 9 35 55 107 308 495 414 333 372 370 350 356 429 428 193 23 5 24 129 171 217 788 815 577 680 625 372 27 19 17
50 10 0 23 10 100 27 17 13 20 20 13 5 1 3 65 8 5 239 369 340 343 317 363 339 342 361 262 45 0 3 8 124 133 217 935 662 544 178 393 89 29 23 44
19 37 3 0 13 27 58 28 16 22 9 2 3 0 0 0 2 0 46 229 357 370 320 352 317 333 288 113 2 1 7 11 52 106 296 460 297 167 216 160 182 116 208 282
39 36 0 23 1 11 57 35 19 15 2 5 0 0 0 8 13 13 8 49 324 400 348 372 336 401 266 60 0 1 2 25 59 164 403 310 175 132 163 188 209 328 860 925
0 0 0 0 5 20 46 29 23 31 3 4 2 5 28 1 0 0 20 91 12 420 412 433 417 494 248 16 0 0 2 4 58 197 365 252 163 131 178 266 297 430 1171 809
0 12 7 0 27 159 64 85 87 55 30 9 1 0 3 0 0 0 26 31 233 416 580 550 524 569 249 0 0 0 0 0 47 233 341 220 294 398 388 704 436 636 1073 1061
23 54 0 0 28 28 102 43 11 61 82 0 0 0 0 0 7 131 10 0 83 643 613 638 601 641 230 0 0 0 0 0 22 216 319 305 419 484 497 636 809 858 774 560
12 58 4 124 193 155 1 48 8 31 26 2 0 0 0 1 6 0 0 4 4 305 720 733 696 716 257 0 0 0 0 0 0 139 341 355 446 489 683 515 616 683 590 577
77 203 165 108 87 173 0 7 80 27 10 0 6 0 0 0 0 0 10 38 41 164 592 813 780 790 289 0 0 0 5 0 0 23 312 509 513 452 711 636 335 196 449 763
83 0 27 1 15 0 0 0 0 1 0 0 1 0 0 0 0 23 66 98 173 183 548 811 856 852 335 0 0 0 5 0 0 1 266 504 599 548 728 749 250 133 300 524
0 0 0 1 0 0 0 0 0 0 0 0 0 0 0 0 2 25 114 270 205 373 500 785 941 891 461 9 0 0 0 0 0 0 150 312 527 464 595 411 226 11 35 137
0 0 0 0 0 0 0 0 0 0 0 0 0 0 0 0 2 3 76 542 483 508 393 771 936 968 596 50 0 0 0 0 7 10 7 136 214 411 526 414 116 89 58 0
0 0 0 0 0 0 0 0 0 0 0 0 0 0 0 0 1 0 1 98 470 772 487 701 912 980 730 123 0 0 0 0 0 146 20 19 10 214 422 260 283 0 0 0
CIN
0 0 0 0 0 0 0 0 0 0 0 0 0 -5 0 0 0 0 0 0 0 0 0 -14 -58 -117 -138 -171 -211 -255 -242 -68 -74 -99 -131 -140 -165 -119 -135 -89 -45 -4 0 -1
0 0 0 0 0 0 0 0 0 0 0 0 0 0 0 -1 0 0 0 0 0 0 0 0 0 -112 -230 -290 -342 -374 -275 -133 -86 -117 -94 -127 -73 -121 -78 -47 -15 0 0 0
0 0 0 0 0 0 0 0 0 0 0 -1 0 0 0 0 0 0 0 0 0 0 0 0 0 -124 -257 -332 -386 -367 -283 -154 -98 -90 -93 -111 -88 -49 -45 -54 0 -2 -3 -1
0 0 0 0 0 0 0 0 0 0 0 0 0 0 0 0 0 0 0 0 0 0 0 0 -25 -148 -266 -320 -370 -329 -231 -195 -201 -71 -53 -1 -52 -65 -49 -2 0 -1 -2 0
0 0 0 0 0 0 0 0 0 0 0 0 0 0 0 0 0 0 0 0 0 0 0 0 -26 -171 -264 -344 -326 -266 -230 -210 -156 -126 -12 -98 -42 -63 -20 -16 -2 -3 0 -1
0 0 0 0 0 0 0 0 0 0 0 0 0 0 0 0 0 0 0 0 0 0 -4 -64 -86 -206 -297 -330 -289 -260 -223 -171 -149 -151 -101 -34 -47 -27 -11 -1 -1 -1 -1 0
0 0 0 0 0 0 0 0 0 0 0 0 0 0 0 0 0 0 0 0 0 -22 -55 -69 -154 -240 -295 -298 -280 -238 -188 -148 -142 -126 -82 -39 -12 -2 0 0 -12 0 0 0
0 0 0 0 0 0 0 0 0 0 0 0 0 0 0 0 0 0 0 0 -29 -56 -77 -132 -179 -236 -242 -276 -260 -210 -165 -139 -134 -95 -55 -24 -4 0 -1 -2 -1 -15 0 0
0 0 0 0 0 0 0 0 0 0 0 0 0 0 0 0 0 0 0 0 -17 -49 -86 -126 -188 -196 -215 -249 -202 -173 -134 -126 -96 -78 -28 -16 0 0 -5 -2 -4 -1 0 -2
-1 0 0 0 0 0 0 0 0 0 0 0 0 -1 0 0 -6 0 -25 -7 -20 -65 -89 -141 -155 -184 -209 -201 -173 -122 -112 -98 -97 -61 -25 -4 0 0 0 0 0 -3 0 -1
-1 0 -1 0 0 0 0 0 0 0 0 0 0 0 -1 -1 -1 -9 0 -1 -29 -56 -98 -144 -153 -187 -189 -165 -132 -94 -99 -118 -100 -29 -21 -6 -1 0 0 0 0 -2 -1 0
-1 -3 0 -2 0 0 0 0 0 0 0 0 0 -1 0 0 -35 -15 0 -11 -44 -59 -98 -117 -133 -161 -140 -118 -111 -90 -123 -133 -78 -47 -11 -4 -1 0 0 0 0 0 -2 -5
-2 -4 -4 -7 -1 0 0 0 0 0 0 0 0 0 0 -24 -20 -31 -1 -14 -54 -70 -92 -91 -119 -119 -112 -99 -88 -141 -179 -175 -92 -47 -18 -1 0 0 0 -1 0 0 -1 0
0 -6 -7 -3 -15 0 0 0 0 0 0 0 0 0 -5 -8 -9 -27 -30 -44 -66 -61 -65 -93 -97 -83 -86 -93 -117 -235 -263 -202 -99 -62 -28 -2 -2 0 -2 -1 0 0 0 0
-2 -39 0 -9 -39 -28 -1 0 0 0 0 0 0 0 -1 -1 -4 -60 -55 -57 -46 -47 -77 -84 -74 -74 -89 -106 -197 -76 -256 -144 -97 -69 -26 -6 -1 0 0 -1 -1 0 0 -6
-5 -65 -5 0 -9 -21 -1 -1 -1 0 0 0 0 0 0 0 -1 -1 -48 -57 -34 -36 -50 -63 -71 -71 -93 -127 -68 -316 -263 -249 -159 -98 -18 -1 0 -1 0 -1 0 -1 0 -2
0 -18 0 -5 -3 -9 -2 0 0 0 0 0 0 0 0 -5 -3 -16 -107 -71 -20 -17 -38 -45 -54 -63 -96 -165 -87 -227 -83 -270 -186 -87 -6 -5 -8 -4 -7 -1 0 0 -1 -2
0 -2 -1 0 -19 -1 -2 -2 -1 -1 0 0 0 -1 -9 -11 0 0 -70 -79 -24 -11 -20 -43 -45 -62 -101 -207 0 0 -344 -350 -213 -68 -10 -10 -11 -8 -4 0 0 0 -1 -1
0 0 -6 0 -14 -1 -1 -1 -1 0 -32 -71 -15 0 -27 0 0 0 -213 -214 -136 -40 -17 -37 -60 -70 -114 0 0 0 0 0 -231 -57 -21 -24 -2 0 0 -1 0 0 0 0
0 0 0 0 -5 -8 -2 -46 -51 -17 0 0 0 0 0 0 -82 -101 -292 0 -207 -104 -14 -37 -68 -88 -136 0 0 0 0 0 -260 -70 -35 -23 0 0 0 0 0 0 0 0
0 -11 -15 -7 0 -1 -31 -4 -59 -2 0 0 0 0 0 -29 -130 0 -135 -226 -172 -136 -33 -42 -63 -89 -146 0 0 0 0 0 0 -108 -40 -33 -9 0 0 0 0 0 0 0
-3 -1 0 -1 -5 -1 0 -49 -7 -1 0 0 0 0 0 0 0 0 -305 -272 -266 -190 -97 -53 -71 -107 -152 0 0 0 -222 0 0 -187 -56 -19 -11 -7 0 0 -1 -6 0 0
-1 0 -3 -4 -1 0 0 0 0 0 0 0 0 0 0 0 0 -268 -263 -258 -223 -195 -89 -50 -69 -115 -169 0 0 0 -305 0 0 -14 -94 -32 -13 -11 -1 0 -28 -40 -7 0
0 0 0 -1 0 0 0 0 0 0 0 0 0 0 0 0 0 -289 -263 -230 -216 -142 -107 -61 -69 -97 -155 -244 0 0 0 0 0 0 -173 -111 -44 -35 -7 -21 -54 -143 -117 -50
0 0 0 0 0 0 0 0 0 0 0 0 0 0 0 0 0 -264 -282 -157 -169 -150 -138 -90 -81 -86 -134 -211 0 0 0 0 -114 -116 -162 -203 -157 -83 -38 -43 -104 -104 -95 0
0 0 0 0 -1 0 0 0 0 0 0 0 0 0 0 0 0 0 -101 -305 -229 -154 -161 -98 -103 -87 -110 -175 0 0 0 0 0 -203 -297 -267 -256 -175 -76 -102 -86 0 0 0
Wind_Speed
nan nan nan nan nan nan nan nan nan nan nan nan nan nan nan nan nan nan nan nan nan nan nan nan nan nan 28 23 29 34 35 38 40 39 36 37 41 43 43 40 35 34 33 33
nan nan nan nan nan nan nan nan nan nan nan nan nan nan nan nan nan nan nan nan nan nan nan nan nan 35 30 28 30 30 37 41 38 38 36 40 41 43 41 40 36 35 34 34
nan nan nan nan nan nan nan nan nan nan nan nan nan nan nan nan nan nan nan nan nan nan nan nan nan 31 31 28 28 34 39 41 38 40 40 40 41 39 37 37 36 39 36 33
nan nan nan nan nan nan nan nan nan nan nan nan nan nan nan nan nan nan nan nan nan nan nan nan nan 29 29 29 31 37 43 41 39 41 39 37 36 34 35 33 35 34 31 27
nan nan nan nan nan nan nan nan nan nan nan nan nan nan nan nan nan nan nan nan nan nan nan nan 27 28 29 32 35 40 43 39 41 34 34 33 28 32 30 31 29 27 25 20
nan nan nan nan nan nan nan nan nan nan nan nan nan nan nan nan nan nan nan nan nan nan nan nan 27 30 31 32 37 40 42 38 38 35 33 25 29 25 24 25 24 23 20 15
nan nan nan nan nan nan nan nan nan nan nan nan nan nan nan nan nan nan nan nan nan nan 23 24 25 28 30 34 38 40 40 36 35 31 28 27 26 23 22 20 21 19 16 13
nan nan nan nan nan nan nan nan nan nan nan nan nan nan nan nan nan nan nan nan 18 19 20 19 22 27 33 36 39 38 35 31 30 26 26 23 24 20 19 20 8 13 12 11
nan nan nan nan nan nan nan nan nan nan nan nan nan nan nan nan nan nan nan nan 19 13 14 18 23 27 34 35 35 32 30 31 25 25 20 21 19 15 17 13 5 10 11 8
nan nan nan nan nan nan nan nan nan nan nan nan nan nan nan nan nan nan nan nan 14 14 17 19 25 31 32 32 30 29 29 25 22 21 21 21 18 15 14 10 4 7 9 4
nan 42 nan nan nan nan nan nan nan nan nan nan nan nan nan nan nan nan nan nan 14 15 18 22 28 31 34 28 28 26 23 21 21 19 21 18 16 11 11 7 6 6 6 2
30 nan 37 nan nan nan nan nan nan nan nan nan nan nan nan nan nan 27 22 25 16 15 20 26 31 33 28 26 25 20 19 20 18 19 18 13 11 7 5 8 6 11 6 0
nan 29 nan 39 nan nan nan nan nan nan nan nan nan nan nan nan nan nan 23 18 15 17 23 27 29 27 23 22 19 18 nan nan 17 17 13 10 9 5 3 7 6 nan nan nan
nan nan nan 40 nan nan nan nan nan nan nan nan nan nan nan nan nan 32 23 18 16 19 24 26 26 23 21 18 16 nan nan nan 16 14 10 11 8 5 7 5 7 nan nan nan
nan nan nan nan nan 53 nan nan nan nan nan nan nan nan nan nan nan nan 27 17 17 20 20 22 20 19 17 15 nan nan nan nan 14 10 9 12 11 11 9 6 nan nan nan nan
nan nan nan nan nan nan nan nan nan nan nan nan nan nan nan nan nan nan nan 19 16 14 15 18 18 16 14 14 nan nan nan nan nan 9 13 13 11 8 10 7 4 3 3 4
nan nan nan nan nan nan nan nan nan nan nan nan nan nan nan nan nan nan nan nan 17 11 9 12 12 10 12 nan nan nan nan nan nan 12 15 15 8 7 9 6 7 3 4 3
nan nan nan nan nan nan nan nan nan nan nan nan nan nan nan nan nan nan nan nan nan 10 7 8 9 7 10 nan nan nan nan nan nan 14 16 14 13 11 9 7 2 2 2 3
nan nan nan nan nan 31 nan nan nan nan nan nan nan nan nan nan nan nan nan nan 29 24 8 7 8 6 9 nan nan nan nan nan nan 14 14 15 13 11 10 6 6 4 3 4
nan nan nan nan nan nan 35 nan nan nan nan nan nan nan nan nan nan 46 nan nan nan 27 10 8 8 7 8 nan nan nan nan nan nan 13 12 12 14 14 12 8 10 8 9 5
nan nan nan 32 22 32 nan nan nan nan nan nan nan nan nan nan nan nan nan nan nan 25 11 9 9 8 6 nan nan nan nan nan nan 11 11 11 11 13 9 11 11 9 14 5
nan 26 28 40 nan 34 nan nan nan nan nan nan nan nan nan nan nan nan nan nan nan 21 15 9 9 11 6 nan nan nan nan nan nan nan 11 10 10 13 9 10 14 15 10 9
nan nan nan nan nan nan nan nan nan nan nan nan nan nan nan nan nan nan nan nan 29 20 14 7 8 11 8 nan nan nan nan nan nan nan 11 11 10 12 8 9 11 12 18 18
nan nan nan nan nan nan nan nan nan nan nan nan nan nan nan nan nan nan 45 38 30 22 15 6 7 12 9 nan nan nan nan nan nan nan 10 11 11 11 8 10 9 nan nan 15
nan nan nan nan nan nan nan nan nan nan nan nan nan nan nan nan nan nan nan 42 35 27 17 10 4 9 10 nan nan nan nan nan nan nan nan 9 10 11 8 13 9 nan nan nan
nan nan nan nan nan nan nan nan nan nan nan nan nan nan nan nan nan nan nan nan 40 32 23 15 5 7 11 9 nan nan nan nan nan 6 nan nan nan 6 8 10 8 nan nan nan
Wind_Direction
nan nan nan nan nan nan nan nan nan nan nan nan nan nan nan nan nan nan nan nan nan nan nan nan nan nan 271 284 304 306 308 307 306 300 307 306 307 310 310 311 315 310 315 307
nan nan nan nan nan nan nan nan nan nan nan nan nan nan nan nan nan nan nan nan nan nan nan nan nan 280 275 297 302 305 308 304 310 306 301 301 301 305 309 311 310 311 309 309
nan nan nan nan nan nan nan nan nan nan nan nan nan nan nan nan nan nan nan nan nan nan nan nan nan 272 277 299 300 300 306 309 307 302 292 292 295 297 305 309 313 315 311 308
nan nan nan nan nan nan nan nan nan nan nan nan nan nan nan nan nan nan nan nan nan nan nan nan nan 273 287 296 296 294 299 305 305 298 297 299 302 310 310 304 302 306 308 318
nan nan nan nan nan nan nan nan nan nan nan nan nan nan nan nan nan nan nan nan nan nan nan nan 273 275 294 296 293 293 298 306 297 304 301 300 310 308 307 309 305 318 316 316
nan nan nan nan nan nan nan nan nan nan nan nan nan nan nan nan nan nan nan nan nan nan nan nan 265 283 291 292 293 296 305 301 299 298 297 311 303 302 309 316 314 314 324 340
nan nan nan nan nan nan nan nan nan nan nan nan nan nan nan nan nan nan nan nan nan nan 248 262 280 292 290 294 298 303 306 300 301 299 303 307 307 311 319 318 325 327 335 345
nan nan nan nan nan nan nan nan nan nan nan nan nan nan nan nan nan nan nan nan 243 239 258 281 289 288 295 298 306 304 301 304 307 309 313 305 310 322 324 319 301 305 333 355
nan nan nan nan nan nan nan nan nan nan nan nan nan nan nan nan nan nan nan nan 277 282 286 290 288 295 297 301 303 300 301 305 310 314 311 310 316 300 296 307 335 315 343 353
nan nan nan nan nan nan nan nan nan nan nan nan nan nan nan nan nan nan nan nan 285 282 292 293 293 296 300 300 298 303 303 309 313 315 312 318 308 317 316 332 334 319 343 330
nan 205 nan nan nan nan nan nan nan nan nan nan nan nan nan nan nan nan nan nan 309 314 300 300 297 300 301 300 302 307 310 315 315 312 321 304 309 336 330 325 353 339 345 287
178 nan 174 nan nan nan nan nan nan nan nan nan nan nan nan nan nan 186 177 252 293 302 302 299 302 305 306 302 311 317 316 316 318 321 323 309 323 359 314 0 347 322 40 324
nan 158 nan 187 nan nan nan nan nan nan nan nan nan nan nan nan nan nan 220 263 286 303 297 297 305 307 311 306 320 321 nan nan 327 336 329 312 325 355 357 9 342 nan nan nan
nan nan nan 165 nan nan nan nan nan nan nan nan nan nan nan nan nan 227 228 250 278 293 301 302 306 308 312 315 326 nan nan nan 332 339 331 310 331 357 16 351 1 nan nan nan
nan nan nan nan nan 156 nan nan nan nan nan nan nan nan nan nan nan nan 230 248 273 296 306 306 318 313 307 326 nan nan nan nan 332 335 328 289 320 4 336 348 nan nan nan nan
nan nan nan nan nan nan nan nan nan nan nan nan nan nan nan nan nan nan nan 237 261 282 304 318 320 314 324 329 nan nan nan nan nan 350 320 340 321 338 327 307 336 19 84 157
nan nan nan nan nan nan nan nan nan nan nan nan nan nan nan nan nan nan nan nan 227 256 294 321 318 314 334 nan nan nan nan nan nan 359 335 332 339 349 344 342 354 333 153 154
nan nan nan nan nan nan nan nan nan nan nan nan nan nan nan nan nan nan nan nan nan 229 273 316 314 315 342 nan nan nan nan nan nan 4 354 358 8 359 5 12 17 146 204 162
nan nan nan nan nan 201 nan nan nan nan nan nan nan nan nan nan nan nan nan nan 203 184 268 302 307 315 352 nan nan nan nan nan nan 11 8 18 15 17 15 44 32 24 308 295
nan nan nan nan nan nan 186 nan nan nan nan nan nan nan nan nan nan 219 nan nan nan 179 259 283 297 302 360 nan nan nan nan nan nan 14 17 22 23 20 27 21 23 41 65 51
nan nan nan 197 160 193 nan nan nan nan nan nan nan nan nan nan nan nan nan nan nan 181 190 263 284 272 344 nan nan nan nan nan nan 13 19 25 27 27 10 40 52 53 72 68
nan 180 198 198 nan 214 nan nan nan nan nan nan nan nan nan nan nan nan nan nan nan 180 149 264 279 281 297 nan nan nan nan nan nan nan 16 15 26 50 30 46 65 66 75 61
nan nan nan nan nan nan nan nan nan nan nan nan nan nan nan nan nan nan nan nan 197 184 157 246 275 299 299 nan nan nan nan nan nan nan 20 15 16 55 35 50 70 72 73 60
nan nan nan nan nan nan nan nan nan nan nan nan nan nan nan nan nan nan 198 198 193 192 162 219 295 298 317 nan nan nan nan nan nan nan 23 23 29 52 48 70 75 nan nan 85
nan nan nan nan nan nan nan nan nan nan nan nan nan nan nan nan nan nan nan 193 194 194 182 189 268 291 313 nan nan nan nan nan nan nan nan 24 42 59 53 84 88 nan nan nan
nan nan nan nan nan nan nan nan nan nan nan nan nan nan nan nan nan nan nan nan 191 191 189 192 238 297 304 328 nan nan nan nan nan 345 nan nan nan 54 80 82 103 nan nan nan